Flag for U.S.A. Weather past 2 weeks in Key West, Florida, U.S.A.

Now
88 °F

Scattered clouds.


Feels Like: 103 °F
Forecast: 82 / 89 °F
Wind: 14 mph from Southeast

Location: Key West International Airport

Current Time: Jul 4, 2015 at 7:01:05 PM

Latest Report: Jul 4, 2015 at 5:53 PM


Visibility: 10 mi

Pressure: 30.05 "Hg

Humidity: 75%

Dew point: 79 °F

Location of Key WestLocation

Historic Weather in Key West — Graph

°F

Key West temperature yesterday

Maximum temperature yesterday: 91 °F (at 1:53 PM)
Minimum temperature yesterday: 83 °F (at 6:00 AM)
Average temperature yesterday: 86 °F

Past Weeks' High & Low Weather Summary

 TemperatureHumidityPressure
High94 °F (Jun 30, 2:53 PM)88% (Jun 29, 6:53 AM)30.16 "Hg (Jun 29, 6:53 AM)
Low80 °F (Jun 21, 6:53 AM)58% (Jun 30, 1:53 PM)30.02 "Hg (Jul 2, 5:53 PM)
Average86 °F74%30.09 "Hg
* Reported Jun 19 5:53 PM — Jul 4 5:53 PM, Key West, Weather by CustomWeather, © 2015

Note: Actual official high and low records may vary slightly from our data, if they occured in-between our weather recording intervals... More about our weather records

Advertising

Key West weather history for previous 24 hours

 ConditionsComfort  
Time TempWeatherWind HumidityBarometerVisibility
5:53 PM
Sat, Jul 4
88 °FScattered clouds.14 mph75%30.05 "Hg10 mi
4:53 PM89 °FSunny.15 mph72%30.06 "Hg10 mi
3:53 PM90 °FPassing clouds.13 mph70%30.06 "Hg10 mi
2:53 PM90 °FSunny.9 mph68%30.08 "Hg10 mi
1:53 PM90 °FPassing clouds.9 mph68%30.10 "Hg10 mi
12:53 PM90 °FPassing clouds.13 mph68%30.10 "Hg10 mi
11:53 AM90 °FPassing clouds.13 mph66%30.11 "Hg10 mi
10:53 AM89 °FSunny.13 mph70%30.09 "Hg10 mi
9:53 AM87 °FPassing clouds.8 mph75%30.09 "Hg10 mi
8:53 AM85 °FScattered clouds.10 mph77%30.09 "Hg10 mi
7:53 AM85 °FPassing clouds.9 mph77%30.07 "Hg10 mi
6:53 AM84 °FPassing clouds.9 mph80%30.07 "Hg10 mi
5:53 AM84 °FClear.12 mph80%30.06 "Hg10 mi
4:53 AM84 °FPassing clouds.15 mph80%30.05 "Hg10 mi
3:53 AM84 °FPassing clouds.9 mph80%30.05 "Hg10 mi
2:53 AM84 °FPassing clouds.14 mph80%30.06 "Hg10 mi
1:53 AM85 °FPassing clouds.13 mph77%30.07 "Hg10 mi
12:53 AM85 °FClear.13 mph70%30.08 "Hg10 mi
11:53 PM
Fri, Jul 3
85 °FClear.13 mph75%30.09 "Hg10 mi
10:53 PM85 °FPassing clouds.14 mph83%30.09 "Hg10 mi
9:53 PM86 °FPassing clouds.13 mph77%30.08 "Hg10 mi
8:53 PM85 °FPassing clouds.14 mph80%30.05 "Hg10 mi
7:53 PM86 °FScattered clouds.10 mph77%30.05 "Hg10 mi
Weather by CustomWeather, © 2015

See weather overviewHow to use our weather pages